User: anonymous   Login
Location: Caltech
(34.1382°N, 118.1253°W)
Time: 23:49:59
(UTC-07:00)
Language:

ERBS - Orbit

View from above orbital plane
View from above orbital plane
View from above satellite
View from above satellite

Ground track
Ground track

The orbit data is extracted from the following two-line orbital elements,

1 15354U 84108B   18116.61053250 +.00002263 +00000-0 +54482-4 0  9998
2 15354 057.0074 226.7837 0010636 015.0291 345.1079 15.45725493846363
Epoch (UTC): 26 April 2018 14:39:10
Eccentricity: 0.0010636
inclination: 57.0074°
perigee height: 422 km
apogee height: 436 km
right ascension of ascending node: 226.7837°
argument of perigee: 15.0291°
revolutions per day: 15.45725493
mean anomaly at epoch: 345.1079°
orbit number at epoch: 84636

The dashed part of the orbit path shows where the satellite is in the earth's shadow,  

DLR